Theta_e
311 310 310 310 310 310 310 310 310 310 310 310 310 311 310 310 310 308 303 306 302 296 296 299 299 296 296 296 292 297 297 298 299 297 297 299 299 302 300 305 303 304 301 299 301 298 296 317 313 305 309 314 315 315
310 310 310 310 310 310 310 310 310 310 310 310 310 311 310 310 310 309 300 305 308 299 297 303 302 303 301 300 296 297 295 297 301 297 297 298 298 300 303 299 310 302 308 304 304 303 316 317 313 320 319 318 315 315
310 310 310 310 310 310 310 309 310 309 310 310 310 310 310 309 309 307 303 305 303 298 297 298 298 303 305 304 303 292 296 301 301 302 300 300 298 303 298 302 306 308 311 306 309 311 314 317 318 319 320 323 320 320
309 310 310 310 309 309 310 309 309 309 309 310 310 310 310 310 309 308 303 306 304 299 291 293 304 301 305 305 305 301 299 299 300 301 298 298 297 304 299 302 303 307 310 308 310 312 315 316 319 319 324 325 326 325
309 309 309 310 310 309 309 309 309 309 309 309 310 310 310 310 309 308 306 306 305 298 291 294 299 302 303 304 303 304 300 298 297 296 297 297 302 302 304 304 303 309 307 306 303 313 314 315 321 325 319 323 321 320
308 309 309 310 310 310 309 309 309 309 309 309 309 310 310 310 309 305 299 307 308 307 295 289 299 299 303 306 305 303 302 300 299 297 298 301 306 302 300 300 311 313 315 316 313 317 317 320 325 331 325 326 330 329
308 309 309 310 310 310 309 309 309 309 309 309 309 309 309 309 307 301 300 306 309 306 295 290 291 301 305 306 305 303 303 301 300 299 299 300 301 304 301 298 306 311 315 323 325 326 324 328 326 333 331 332 331 332
308 309 309 309 310 309 309 309 309 309 309 309 309 309 309 309 307 303 307 308 309 302 299 289 291 296 305 300 298 304 298 300 300 299 301 301 303 304 300 307 311 315 316 326 327 327 324 325 328 329 331 331 329 329
308 308 309 309 309 309 309 309 309 309 309 309 309 308 306 304 300 303 311 308 306 300 292 292 289 288 303 301 303 302 305 296 302 298 299 300 299 298 305 308 309 321 322 324 327 329 328 327 326 326 326 331 331 332
308 308 308 309 309 309 309 309 309 309 308 308 307 301 298 302 311 308 302 297 296 296 295 290 298 292 300 299 299 299 302 296 294 297 301 297 296 302 305 308 311 325 326 326 323 322 324 325 326 326 330 329 332 337
308 308 308 308 308 309 309 309 309 308 308 305 301 299 305 310 303 298 293 291 292 289 292 293 294 292 300 295 296 300 298 298 293 295 296 294 292 299 306 309 312 325 325 325 325 325 325 327 327 327 328 331 333 340
307 308 308 308 309 309 309 309 309 308 308 306 304 306 305 300 294 290 289 292 290 289 297 295 297 296 301 305 299 301 296 298 292 305 297 292 296 304 307 308 314 323 324 325 326 326 326 326 329 329 328 328 338 341
307 307 308 308 309 309 310 310 309 307 307 308 304 299 297 294 287 286 286 289 290 296 298 300 298 301 303 304 300 299 295 295 303 297 295 299 306 310 312 318 323 325 327 328 327 328 330 332 335 336 335 331 340 340
307 307 307 308 309 310 310 309 310 310 309 303 298 288 291 290 291 292 292 294 299 299 299 301 299 298 302 297 298 295 301 303 295 294 295 302 308 311 313 319 321 321 324 325 327 330 329 332 332 333 334 336 338 336
307 307 308 312 311 310 309 310 311 312 311 302 301 295 296 300 299 300 302 301 304 304 303 303 303 302 301 298 301 297 296 294 295 295 301 306 309 312 313 318 320 320 321 322 326 327 327 329 328 327 330 332 333 333
307 308 315 311 310 309 309 313 311 314 316 308 306 301 304 301 301 303 304 304 310 311 311 310 303 300 298 299 296 294 288 288 296 301 305 307 308 309 315 319 321 321 321 322 325 325 325 325 326 324 324 325 325 324
306 318 312 310 309 309 313 320 323 313 310 307 306 311 309 307 305 305 306 307 313 305 299 301 294 292 298 292 292 295 295 298 302 304 306 307 307 310 316 319 319 320 320 322 323 324 323 323 322 320 317 318 318 318
312 316 311 309 308 314 327 323 315 309 305 305 304 304 310 312 309 309 310 309 307 306 303 298 300 294 291 290 292 297 301 303 305 305 306 307 308 313 315 312 311 313 318 318 320 319 320 318 317 316 315 316 316 315
307 307 307 307 308 309 317 316 319 304 306 306 309 311 311 310 311 312 310 314 311 311 308 302 296 295 296 300 300 301 302 303 302 304 306 307 308 308 309 310 311 310 309 310 313 316 317 317 316 316 315 315 313 313
307 309 310 310 312 318 313 314 320 311 306 309 310 310 309 309 310 310 311 310 309 308 303 301 301 302 302 305 307 307 307 307 304 302 303 306 308 308 307 307 307 310 309 309 309 307 310 312 315 315 314 313 312 312
315 322 317 320 323 319 317 315 311 313 311 309 313 310 309 312 309 309 308 308 304 304 303 307 309 311 312 312 311 310 309 309 306 305 304 304 308 307 307 307 309 309 307 308 307 307 307 307 311 313 314 314 313 313
324 317 324 329 318 318 317 322 317 317 314 308 311 313 308 305 305 307 310 307 306 306 311 308 312 313 313 312 313 314 314 313 311 308 305 307 307 307 307 308 307 306 307 308 308 308 308 309 309 311 312 312 312 312
318 319 324 323 311 303 304 323 313 314 307 307 310 305 305 306 309 312 304 307 307 315 314 312 315 317 316 319 315 312 316 315 313 312 312 313 313 312 310 311 312 309 308 309 311 311 311 305 309 311 312 312 310 309
313 319 315 312 309 301 315 312 313 310 311 307 305 302 304 307 312 305 302 305 309 314 313 315 312 309 310 311 307 306 307 308 308 311 313 313 312 312 313 312 313 314 313 313 312 313 313 312 308 312 312 312 312 310
305 306 310 293 312 310 304 304 305 306 303 306 303 304 306 310 303 301 301 306 309 310 311 311 310 310 307 307 308 307 308 306 305 305 308 308 309 310 307 310 308 305 305 304 307 312 313 313 313 311 312 311 311 311
293 310 303 308 308 306 306 302 302 303 303 303 304 309 310 306 301 299 304 309 310 311 311 311 309 308 308 308 306 305 305 307 306 303 305 305 304 302 302 302 300 301 306 305 305 304 304 304 307 310 310 310 303 308
298 308 314 320 313 313 309 310 308 305 302 302 305 305 303 298 299 305 311 314 310 315 316 316 315 310 310 309 309 307 307 307 305 304 306 304 303 302 300 298 298 300 305 306 305 304 304 305 305 305 305 306 306 307
313 312 308 311 312 313 308 307 306 304 306 309 307 303 300 300 301 313 313 318 318 318 317 312 315 314 311 310 308 308 307 307 307 306 305 305 305 303 302 301 301 296 302 305 304 306 305 304 304 305 305 304 304 305
314 314 313 308 308 309 309 307 307 309 313 310 306 304 306 312 314 313 315 315 316 316 315 312 313 315 312 311 309 307 307 306 303 300 299 298 299 299 301 300 300 302 303 303 298 301 306 304 306 305 305 304 304 304
313 314 310 307 306 305 310 315 311 314 314 314 314 315 314 314 316 318 316 315 313 313 312 311 310 309 307 306 306 306 307 307 306 303 300 298 299 300 300 299 300 301 301 301 300 300 299 301 300 304 302 301 300 300
315 314 311 310 307 310 310 313 315 315 314 313 314 310 311 312 315 319 317 315 315 314 311 309 309 309 307 307 306 304 303 307 308 305 303 302 300 299 299 300 300 300 300 299 299 298 298 298 298 298 297 298 298 297
314 310 308 307 309 314 315 312 311 312 312 312 310 312 312 311 310 313 318 316 313 310 306 308 308 308 310 310 310 309 302 307 305 304 301 299 298 299 299 300 299 299 298 297 297 296 295 295 296 295 295 295 295 295
311 311 310 309 309 309 313 310 308 308 308 308 309 311 312 310 307 313 318 317 312 311 309 310 310 311 312 311 310 308 303 305 299 292 292 292 292 292 296 298 299 298 296 296 295 294 294 294 293 293 293 292 292 292
Wind_Speed
20 18 18 18 19 17 16 15 15 14 15 14 14 14 13 12 10 5 7 9 5 6 14 16 15 15 15 8 6 11 11 8 7 5 2 4 5 5 3 5 5 5 8 5 5 5 6 1 8 11 10 8 7 6
22 20 18 18 18 17 17 16 15 14 15 15 14 14 15 12 11 7 6 8 1 3 12 20 23 20 21 20 9 6 8 7 5 7 7 7 5 6 2 3 2 0 7 7 10 8 5 4 4 3 3 9 6 9
23 21 19 18 17 17 17 17 16 16 16 16 16 15 13 13 9 5 6 8 8 6 12 11 13 14 12 17 13 6 4 4 5 10 6 5 6 7 6 4 2 1 4 4 7 4 7 6 5 6 4 5 6 8
23 22 20 18 17 18 17 17 17 16 16 16 17 15 14 12 13 9 4 4 5 3 7 9 11 14 17 14 8 13 10 6 7 7 7 5 6 6 7 8 7 6 6 3 3 7 4 5 5 4 9 7 10 7
24 22 20 19 17 17 17 16 16 16 16 16 16 16 14 13 13 8 6 6 8 4 5 10 20 16 12 11 12 8 8 5 4 6 6 7 7 6 6 6 4 6 4 6 5 5 5 5 5 8 6 2 4 4
24 23 21 19 17 16 16 15 15 15 15 15 15 15 14 11 9 2 3 7 10 7 3 6 7 12 13 7 9 11 5 5 4 4 6 5 7 5 5 5 3 21 22 6 6 5 9 7 4 4 5 0 7 8
24 23 21 19 17 16 15 14 14 13 14 14 13 13 11 10 4 3 2 4 5 5 2 5 6 6 8 3 3 6 5 3 3 4 4 8 11 4 5 8 14 22 15 18 9 6 8 9 3 7 6 7 8 7
24 23 22 19 17 16 14 13 12 12 12 12 11 11 10 7 3 1 5 6 2 2 0 3 5 5 4 2 3 5 4 3 3 3 3 4 6 4 6 3 5 9 11 10 15 14 8 7 11 10 9 5 7 3
23 23 22 19 18 16 15 13 12 12 12 10 8 4 3 0 2 1 8 10 4 3 2 2 3 4 6 1 2 4 4 3 3 4 7 3 4 7 1 6 12 12 6 8 12 13 16 13 11 9 9 8 7 7
23 23 22 19 18 18 17 14 11 10 8 1 3 1 2 1 14 8 2 1 2 2 3 4 3 4 3 3 2 2 2 3 2 5 2 7 9 24 15 16 7 6 9 10 9 12 11 10 9 10 9 10 4 5
24 24 22 21 18 18 17 13 8 2 7 1 1 2 2 8 0 1 2 2 2 4 4 4 7 5 4 3 4 4 3 3 3 5 5 4 12 17 10 12 13 3 4 7 8 7 10 12 7 8 11 12 6 8
25 24 24 23 19 17 15 10 3 3 1 3 4 3 2 1 1 2 2 2 4 4 3 3 4 6 4 3 2 3 3 5 7 4 6 4 12 10 9 12 13 3 5 7 8 8 9 13 14 10 7 7 3 8
26 24 25 24 20 15 12 8 5 5 6 2 1 3 2 1 2 1 2 3 3 4 5 3 3 3 3 2 4 4 6 5 3 5 5 3 10 12 13 3 4 6 4 3 6 9 7 10 11 9 10 5 7 13
27 26 25 24 20 17 7 5 8 7 2 1 0 3 2 2 4 5 4 4 4 4 6 5 5 4 3 1 3 6 6 5 8 1 3 3 11 12 13 13 7 5 4 5 7 7 7 6 6 9 11 5 10 13
30 29 26 13 18 20 17 7 16 5 3 2 1 3 4 3 4 6 6 4 6 7 6 3 4 7 4 4 1 5 8 5 6 5 4 9 13 12 12 11 6 6 6 7 6 4 5 4 5 6 8 7 8 11
29 25 4 14 21 26 23 2 8 4 3 1 5 4 2 6 8 9 8 7 7 4 2 2 3 4 6 3 3 7 3 2 3 2 5 7 11 12 11 8 4 4 4 6 5 1 4 6 6 4 5 6 6 7
28 3 14 19 26 28 10 2 2 5 2 3 4 2 3 1 3 5 9 6 7 9 11 5 7 6 5 6 7 6 5 4 6 6 5 7 9 12 6 5 4 3 3 2 2 3 4 5 5 6 6 5 7 7
5 12 25 22 18 8 3 3 3 2 5 4 5 3 5 3 6 6 4 4 5 5 4 5 3 6 5 6 6 6 5 7 4 6 8 10 13 5 8 10 11 10 3 4 3 4 4 6 7 5 7 7 9 8
16 18 27 24 8 4 4 3 4 4 7 2 8 3 3 8 7 5 7 3 2 2 2 3 5 3 3 2 6 8 9 9 7 7 8 14 14 12 12 12 12 11 13 13 11 6 4 6 5 5 4 5 6 5
24 20 17 9 6 4 3 3 3 1 3 1 2 4 8 7 6 8 8 10 7 3 4 5 4 3 3 2 2 4 3 5 4 9 12 10 11 14 15 12 9 8 11 14 13 16 10 8 6 4 6 5 5 4
10 3 7 7 5 6 1 1 1 1 1 3 2 4 4 3 3 4 9 3 6 5 4 4 2 2 3 1 3 5 4 5 6 7 5 7 8 8 10 10 8 8 9 9 10 10 16 9 9 8 7 6 6 6
3 7 3 4 2 3 2 2 1 4 2 3 4 2 3 4 6 4 3 4 2 2 3 4 4 2 3 2 5 5 3 4 4 4 1 2 2 3 4 5 7 9 10 9 8 8 6 6 8 8 7 5 6 4
9 3 4 4 1 3 6 2 2 3 3 4 2 2 3 4 3 4 2 2 3 4 2 4 4 3 5 3 4 5 6 4 1 5 3 2 3 2 2 1 0 2 3 2 1 3 4 4 5 5 5 4 4 2
1 4 5 3 5 4 3 3 3 5 2 3 1 4 3 2 1 4 5 6 2 4 4 6 7 7 7 7 8 9 10 10 10 6 3 1 2 1 3 2 0 1 1 3 2 2 2 2 4 3 3 2 2 3
3 6 2 6 5 4 2 2 4 5 3 3 4 4 3 3 2 3 4 3 4 5 7 11 11 7 6 7 6 8 11 10 10 9 9 10 6 3 7 6 6 9 10 9 5 3 3 3 4 5 3 3 7 1
2 3 4 4 3 3 9 5 3 5 4 2 4 5 3 0 4 1 4 3 4 6 6 5 4 7 8 8 7 8 9 10 10 10 11 12 13 12 12 11 10 9 9 8 8 10 10 9 5 1 2 3 5 7
2 4 3 3 5 5 4 4 2 2 2 4 3 3 3 3 3 2 3 4 4 2 3 3 3 5 3 4 4 7 8 10 10 10 8 10 11 11 11 11 11 9 10 10 9 9 10 10 12 12 11 12 14 11
1 4 3 3 4 3 9 3 4 6 5 4 1 2 2 1 1 1 3 3 3 3 3 1 1 3 3 3 5 6 7 8 8 9 8 9 9 9 11 11 11 16 9 6 6 6 7 8 6 5 7 8 8 10
5 2 3 2 2 3 2 3 3 2 4 1 2 1 3 1 4 9 6 5 3 4 2 3 2 2 5 5 7 8 8 7 9 13 14 10 9 9 10 11 10 10 9 11 12 5 5 5 5 4 6 6 6 7
5 1 2 3 3 2 2 3 1 2 2 1 3 3 2 9 8 8 6 3 4 2 6 8 7 6 6 6 6 7 8 8 8 7 7 8 8 8 9 9 9 10 10 11 12 13 12 10 7 5 6 5 5 4
0 2 4 3 2 4 5 3 1 2 2 3 9 9 4 2 4 2 3 4 5 8 6 5 7 8 9 7 7 6 6 6 8 11 9 7 8 8 8 8 9 9 10 11 11 11 12 10 8 8 11 11 10 10
3 1 3 2 4 5 2 4 4 3 4 5 3 6 4 4 4 3 3 4 2 6 4 5 7 7 8 7 7 5 7 8 7 7 9 6 6 7 8 8 7 7 9 11 11 11 14 14 12 12 10 11 10 10
1 1 1 3 4 1 2 1 3 3 3 1 2 9 8 6 5 2 3 4 6 7 9 7 8 7 8 8 8 8 8 6 9 10 8 3 3 5 5 5 5 7 10 10 10 11 12 15 12 12 11 11 11 11
Wind_Direction
309 303 288 283 283 284 285 288 294 296 295 296 294 293 291 292 294 282 287 292 281 277 291 280 303 320 322 323 309 328 334 11 313 331 293 289 272 259 244 203 177 147 155 164 117 133 229 145 260 196 218 246 143 144
311 304 302 292 284 283 282 282 283 285 285 286 285 286 301 293 278 277 279 282 22 190 276 294 285 273 261 269 289 309 305 333 321 348 10 317 318 318 256 235 98 97 146 173 170 194 219 161 182 269 216 199 197 135
319 317 306 297 289 282 278 277 280 282 284 284 283 281 279 299 301 286 285 300 301 281 285 266 278 272 238 232 229 241 277 265 303 329 314 314 300 359 351 320 84 106 88 108 65 193 200 296 338 347 347 11 161 138
324 321 314 304 298 288 278 273 275 279 281 282 282 278 273 260 273 263 257 276 285 291 288 292 311 335 323 312 257 205 237 281 282 300 297 281 301 314 308 290 304 254 110 145 132 320 17 360 339 332 328 62 55 59
327 324 319 312 303 294 290 282 275 274 276 278 280 281 276 270 255 263 260 227 237 215 294 311 311 293 283 286 286 273 174 209 267 289 292 299 290 330 317 271 275 336 254 148 198 212 159 252 285 295 307 182 93 102
327 327 322 317 313 302 293 288 281 278 276 273 272 273 275 269 257 247 275 212 216 200 278 300 338 302 298 321 339 275 199 177 221 275 298 281 292 333 282 314 352 356 0 329 199 187 182 230 226 332 269 161 53 20
328 328 325 321 316 311 305 299 294 286 281 279 275 273 271 266 234 214 294 308 290 124 168 281 280 298 319 347 274 270 233 221 208 239 234 270 283 298 256 267 322 312 335 346 7 74 55 47 44 11 24 51 61 64
329 330 327 323 319 317 311 305 298 294 293 291 284 275 273 263 202 169 253 319 167 135 299 266 274 287 203 225 267 223 196 185 250 239 298 291 291 221 254 319 287 310 334 351 7 18 19 37 32 10 1 26 40 81
331 331 326 324 319 316 310 305 301 296 294 292 305 126 112 275 139 248 107 65 38 97 256 247 267 285 308 318 49 336 19 235 245 253 233 221 270 242 236 319 348 336 16 359 2 7 7 16 5 4 356 1 36 38
331 332 324 323 319 313 307 308 307 306 314 183 140 173 128 174 127 131 59 98 148 188 218 242 239 256 289 241 162 199 167 261 265 239 242 215 238 260 287 306 306 3 359 356 7 7 349 350 353 338 349 334 43 86
331 333 325 326 318 310 306 307 313 26 116 241 113 59 66 144 206 354 148 211 165 244 212 231 206 231 263 232 211 205 205 192 243 255 198 255 242 252 243 275 283 248 38 344 338 342 344 334 317 331 344 345 336 124
330 332 328 322 313 304 300 300 303 229 109 112 100 104 154 252 78 279 216 212 213 256 215 230 192 190 262 226 211 179 239 201 236 241 191 239 245 249 222 245 270 140 70 340 328 330 330 324 330 320 310 315 296 113
328 330 325 316 307 297 295 291 250 162 151 98 150 133 253 117 332 252 271 227 242 218 203 229 207 217 214 244 224 226 217 245 4 225 210 14 16 359 326 262 62 42 34 301 312 310 349 347 327 346 323 313 96 96
327 328 322 311 303 299 301 262 193 172 226 120 105 10 13 309 240 218 236 236 243 247 258 220 202 197 195 159 257 271 229 212 166 257 41 9 346 343 338 335 352 1 11 356 331 327 343 30 23 27 10 20 106 112
326 326 319 301 313 321 326 195 193 185 201 87 256 15 2 290 252 249 242 257 236 229 245 239 217 192 178 232 166 348 340 35 23 21 349 338 330 334 327 315 305 324 345 324 312 308 9 41 50 57 36 24 86 104
325 316 301 323 337 330 321 315 164 212 144 46 51 346 340 28 7 3 359 339 324 289 236 205 338 19 37 13 340 25 49 327 300 317 303 312 315 304 298 300 312 325 299 285 274 17 71 37 56 48 57 80 69 101
319 256 346 350 342 321 318 300 40 350 310 138 63 4 103 73 302 2 20 348 343 18 28 30 41 9 353 8 348 343 325 315 321 330 319 314 301 292 298 25 3 301 285 217 111 89 98 116 110 98 92 63 99 100
265 328 320 330 344 302 273 15 55 69 73 273 68 265 30 26 32 19 19 335 25 18 2 28 36 17 27 4 356 329 330 330 339 341 353 1 2 4 44 35 35 20 26 71 87 130 126 111 104 104 101 104 91 80
288 292 295 299 318 306 300 53 12 13 28 353 358 55 24 37 26 43 26 21 55 114 97 75 24 20 357 328 359 5 7 7 359 358 29 23 22 29 36 33 35 37 48 37 34 39 42 76 89 95 89 83 89 81
300 276 263 265 205 263 16 50 90 353 2 177 298 346 52 54 0 37 45 28 7 19 26 40 38 234 201 230 303 329 322 321 332 32 35 22 25 25 35 31 24 15 48 42 39 37 31 33 34 53 64 71 84 80
309 308 314 167 196 234 68 16 107 99 350 329 60 14 34 27 54 19 71 114 28 3 33 71 175 187 200 219 238 275 345 12 51 65 53 35 19 30 36 26 17 39 50 53 48 34 45 10 18 34 43 67 61 24
286 337 298 208 275 337 290 194 238 157 193 154 307 73 32 31 47 64 9 6 85 249 354 6 320 351 115 163 170 223 228 172 150 123 148 334 44 48 35 25 28 35 38 39 49 49 45 29 26 22 22 36 50 68
293 203 237 263 109 58 257 259 264 163 199 161 203 76 57 348 54 23 92 108 328 347 46 225 248 286 69 146 53 34 231 262 109 123 174 184 153 191 167 134 263 101 99 17 33 86 63 15 29 33 12 9 27 10
161 268 293 293 157 239 237 234 182 31 287 211 154 121 131 193 233 55 17 44 58 20 17 10 22 23 29 30 48 32 24 21 11 20 90 168 336 46 186 230 274 285 328 141 244 281 289 288 156 216 248 259 218 258
307 289 161 296 264 249 267 37 3 159 219 244 149 132 129 254 83 45 10 359 46 33 31 29 14 17 24 9 43 53 42 30 13 9 12 23 21 336 44 70 56 25 9 12 3 218 279 248 198 233 89 6 289 213
39 236 153 270 295 31 10 318 358 36 346 32 29 115 175 52 75 85 282 78 66 73 63 66 43 359 16 19 40 50 50 43 22 14 15 32 31 25 23 33 25 9 359 353 18 14 9 7 356 278 307 308 336 348
258 241 262 303 298 315 194 237 2 285 327 60 31 344 23 56 63 217 247 83 101 92 84 42 18 6 11 27 39 69 67 59 40 12 21 37 39 31 23 13 8 346 340 354 14 2 4 12 29 27 25 31 30 9
78 274 209 281 329 317 289 335 7 9 38 86 141 344 100 283 247 168 125 110 66 95 120 164 52 4 31 46 53 73 71 68 65 40 18 26 33 33 21 1 347 335 336 8 4 5 14 9 358 18 36 35 36 31
276 213 121 330 336 309 286 168 124 89 11 335 99 236 128 265 30 75 67 56 335 80 353 43 3 25 58 66 59 65 62 50 35 33 18 16 13 21 15 351 343 339 358 355 4 356 334 344 340 32 56 47 37 41
248 4 296 341 182 233 205 280 114 99 49 285 172 194 135 83 71 79 76 25 294 68 41 31 25 43 47 30 36 53 70 69 58 48 23 21 16 14 355 343 338 3 2 2 359 353 2 359 53 38 42 31 38 42
135 139 224 238 34 41 339 335 266 210 198 167 58 50 76 90 64 333 78 259 47 52 28 3 51 42 45 38 49 33 29 37 58 65 46 29 20 3 348 349 14 4 356 0 351 349 6 12 25 22 36 23 5 23
302 268 286 222 197 184 212 306 272 173 192 254 131 132 133 146 125 34 29 51 39 49 15 41 57 54 45 44 65 59 39 59 74 67 58 46 24 5 346 353 8 354 358 354 346 12 6 4 33 38 15 16 15 17
319 326 77 340 324 79 162 356 321 295 11 256 77 104 100 92 100 117 88 58 19 62 82 71 63 60 48 40 46 46 81 92 99 111 117 130 311 340 337 353 359 15 9 356 16 6 6 33 21 10 14 8 355 351